GPS BIII-1 (PRN 04)

Last updated on Thu Aug 20 2026 00:03:18 GMT+0000 (Coordinated Universal Time)

1 43873U 18109A 26231.60671917 -.00000043 00000+0 00000+0 0 9991 2 43873 55.7221 89.6840 0039477 196.4534 359.2733 2.00564447 56348
UTC large
Height (km)
Speed (km/s)
/
Latitude / Longitude
Inclination (degrees)
Orbital Period (minutes)
Azimuth
Elevation
Range (km)
Doppler Factor

Next 0 passes for location: London (51.5072 / 0.1276)

No passes found over London.
GPS BIII-1 (PRN 04)